Time,TemperatureF,DewpointF,PressureIn,WindDirection,WindDirectionDegrees,WindSpeedMPH,WindSpeedGustMPH,Humidity,HourlyPrecipIn,Conditions,Clouds,dailyrainin,SoftwareType,DateUTC
2013-05-31 00:02:00,68.0,64.0,29.87,East,95,2.0,18.0,88,0.18,,,0.22,,2013-05-31 05:02:00,
2013-05-31 00:12:00,68.0,64.0,29.87,East,95,2.0,18.0,88,0.18,,,0.22,,2013-05-31 05:12:00,
2013-05-31 00:22:00,67.0,64.0,29.88,SE,127,2.0,10.0,90,0.14,,,0.25,,2013-05-31 05:22:00,
2013-05-31 00:31:00,67.0,64.0,29.87,ESE,121,3.0,9.0,90,0.14,,,0.26,,2013-05-31 05:31:00,
2013-05-31 00:42:00,67.0,64.0,29.87,ESE,121,3.0,9.0,90,0.14,,,0.26,,2013-05-31 05:42:00,
2013-05-31 00:52:00,66.0,63.0,29.87,ESE,114,2.0,6.0,90,0.09,,,0.26,,2013-05-31 05:52:00,
2013-05-31 01:02:00,66.0,63.0,29.85,SE,131,3.0,5.0,91,0.05,,,0.27,,2013-05-31 06:02:00,
2013-05-31 01:12:00,66.0,63.0,29.85,SE,131,3.0,5.0,91,0.05,,,0.27,,2013-05-31 06:12:00,
2013-05-31 01:21:00,66.0,63.0,29.83,ESE,119,0.0,3.0,91,0.04,,,0.29,,2013-05-31 06:21:00,
2013-05-31 01:31:00,66.0,63.0,29.83,South,174,0.0,5.0,91,0.03,,,0.29,,2013-05-31 06:31:00,
2013-05-31 01:41:00,66.0,64.0,29.83,SSE,153,1.0,6.0,92,0.03,,,0.29,,2013-05-31 06:41:00,
2013-05-31 01:52:00,66.0,64.0,29.83,SSE,153,1.0,6.0,92,0.03,,,0.29,,2013-05-31 06:52:00,
2013-05-31 02:02:00,66.0,64.0,29.82,ESE,117,2.0,6.0,92,0.02,,,0.29,,2013-05-31 07:02:00,
2013-05-31 02:11:00,66.0,64.0,29.82,ESE,117,2.0,6.0,92,0.02,,,0.29,,2013-05-31 07:11:00,
2013-05-31 02:21:00,67.0,65.0,29.81,SSW,193,2.0,10.0,92,0.00,,,0.29,,2013-05-31 07:21:00,
2013-05-31 02:32:00,67.0,65.0,29.82,South,169,5.0,14.0,92,0.00,,,0.29,,2013-05-31 07:32:00,
2013-05-31 02:41:00,67.0,65.0,29.82,South,169,5.0,14.0,92,0.00,,,0.29,,2013-05-31 07:41:00,
2013-05-31 02:52:00,68.0,65.0,29.82,ESE,123,5.0,15.0,91,0.00,,,0.29,,2013-05-31 07:52:00,
2013-05-31 03:02:00,68.0,65.0,29.81,SE,126,1.0,12.0,91,0.00,,,0.29,,2013-05-31 08:02:00,
2013-05-31 03:11:00,68.0,65.0,29.81,SE,126,1.0,12.0,91,0.00,,,0.29,,2013-05-31 08:11:00,
2013-05-31 03:22:00,68.0,65.0,29.82,ESE,118,2.0,10.0,91,0.00,,,0.29,,2013-05-31 08:22:00,
2013-05-31 03:31:00,68.0,65.0,29.82,SE,134,6.0,10.0,91,0.00,,,0.29,,2013-05-31 08:31:00,
2013-05-31 03:42:00,68.0,65.0,29.82,SE,134,6.0,10.0,91,0.00,,,0.29,,2013-05-31 08:42:00,
2013-05-31 03:52:00,68.0,65.0,29.81,East,89,2.0,9.0,91,0.00,,,0.29,,2013-05-31 08:52:00,
2013-05-31 04:01:00,68.0,65.0,29.83,East,87,3.0,8.0,91,0.00,,,0.29,,2013-05-31 09:01:00,
2013-05-31 04:11:00,68.0,65.0,29.83,East,87,3.0,8.0,91,0.00,,,0.29,,2013-05-31 09:11:00,
2013-05-31 04:21:00,67.0,64.0,29.83,ESE,116,3.0,9.0,91,0.02,,,0.31,,2013-05-31 09:21:00,
2013-05-31 04:32:00,67.0,64.0,29.82,SE,128,3.0,8.0,91,0.04,,,0.33,,2013-05-31 09:32:00,
2013-05-31 04:43:00,67.0,64.0,29.82,SE,128,3.0,8.0,91,0.04,,,0.33,,2013-05-31 09:43:00,
2013-05-31 04:53:00,66.0,64.0,29.81,SSE,152,6.0,14.0,92,0.05,,,0.34,,2013-05-31 09:53:00,
2013-05-31 05:02:00,65.0,63.0,29.80,South,177,6.0,9.0,92,0.07,,,0.36,,2013-05-31 10:02:00,
2013-05-31 05:12:00,65.0,63.0,29.81,South,185,6.0,16.0,92,0.05,,,0.36,,2013-05-31 10:12:00,
2013-05-31 05:22:00,65.0,63.0,29.81,South,185,6.0,16.0,92,0.05,,,0.36,,2013-05-31 10:22:00,
2013-05-31 05:33:00,65.0,63.0,29.81,ESE,108,2.0,10.0,93,0.03,,,0.36,,2013-05-31 10:33:00,
2013-05-31 05:42:00,65.0,63.0,29.81,ESE,108,2.0,10.0,93,0.03,,,0.36,,2013-05-31 10:42:00,
2013-05-31 05:52:00,64.0,62.0,29.83,SSE,165,6.0,8.0,93,0.03,,,0.37,,2013-05-31 10:52:00,
2013-05-31 06:02:00,64.0,62.0,29.81,South,173,3.0,10.0,93,0.01,,,0.37,,2013-05-31 11:02:00,
2013-05-31 06:11:00,64.0,62.0,29.81,South,173,3.0,10.0,93,0.01,,,0.37,,2013-05-31 11:11:00,
2013-05-31 06:22:00,64.0,62.0,29.81,SSE,158,3.0,9.0,93,0.01,,,0.37,,2013-05-31 11:22:00,
2013-05-31 06:32:00,64.0,62.0,29.82,SE,143,2.0,3.0,93,0.01,,,0.37,,2013-05-31 11:32:00,
2013-05-31 06:42:00,64.0,62.0,29.82,SE,143,2.0,3.0,93,0.01,,,0.37,,2013-05-31 11:42:00,
2013-05-31 06:52:00,64.0,62.0,29.83,SE,143,0.0,3.0,93,0.00,,,0.37,,2013-05-31 11:52:00,
2013-05-31 07:01:00,64.0,62.0,29.83,South,186,2.0,6.0,93,0.00,,,0.37,,2013-05-31 12:01:00,
2013-05-31 07:11:00,64.0,62.0,29.83,South,186,2.0,6.0,93,0.00,,,0.37,,2013-05-31 12:11:00,
2013-05-31 07:21:00,64.0,62.0,29.85,SE,139,3.0,8.0,93,0.00,,,0.37,,2013-05-31 12:21:00,
2013-05-31 07:31:00,64.0,62.0,29.83,SE,132,1.0,8.0,93,0.00,,,0.37,,2013-05-31 12:31:00,
2013-05-31 07:41:00,64.0,62.0,29.83,SE,132,1.0,8.0,93,0.00,,,0.37,,2013-05-31 12:41:00,
2013-05-31 07:52:00,64.0,62.0,29.84,SE,139,1.0,10.0,93,0.00,,,0.37,,2013-05-31 12:52:00,
2013-05-31 08:01:00,64.0,62.0,29.83,SE,136,4.0,6.0,93,0.00,,,0.37,,2013-05-31 13:01:00,
2013-05-31 08:11:00,64.0,62.0,29.83,SE,136,4.0,6.0,93,0.00,,,0.37,,2013-05-31 13:11:00,
2013-05-31 08:21:00,65.0,63.0,29.85,East,92,1.0,14.0,93,0.00,,,0.37,,2013-05-31 13:21:00,
2013-05-31 08:32:00,65.0,63.0,29.85,SSE,147,3.0,9.0,93,0.00,,,0.37,,2013-05-31 13:32:00,
2013-05-31 08:42:00,65.0,63.0,29.85,SSE,147,3.0,9.0,93,0.00,,,0.37,,2013-05-31 13:42:00,
2013-05-31 08:52:00,65.0,63.0,29.85,SSE,151,3.0,9.0,92,0.00,,,0.37,,2013-05-31 13:52:00,
2013-05-31 09:02:00,66.0,63.0,29.85,SSE,161,2.0,9.0,91,0.00,,,0.37,,2013-05-31 14:02:00,
2013-05-31 09:11:00,66.0,63.0,29.85,SSE,161,2.0,9.0,91,0.00,,,0.37,,2013-05-31 14:11:00,
2013-05-31 09:21:00,66.0,63.0,29.85,ESE,116,1.0,14.0,91,0.00,,,0.37,,2013-05-31 14:21:00,
2013-05-31 09:32:00,67.0,64.0,29.85,ESE,108,5.0,9.0,90,0.00,,,0.37,,2013-05-31 14:32:00,
2013-05-31 09:41:00,67.0,64.0,29.85,ESE,108,5.0,9.0,90,0.00,,,0.37,,2013-05-31 14:41:00,
2013-05-31 09:52:00,69.0,65.0,29.84,SE,135,5.0,10.0,87,0.00,,,0.37,,2013-05-31 14:52:00,
2013-05-31 10:01:00,69.0,65.0,29.84,ESE,107,4.0,20.0,87,0.00,,,0.37,,2013-05-31 15:01:00,
2013-05-31 10:11:00,69.0,65.0,29.84,ESE,107,4.0,20.0,87,0.00,,,0.37,,2013-05-31 15:11:00,
2013-05-31 10:21:00,69.0,65.0,29.85,SE,141,6.0,20.0,87,0.00,,,0.37,,2013-05-31 15:21:00,
2013-05-31 10:33:00,70.0,66.0,29.85,SE,140,6.0,16.0,87,0.00,,,0.37,,2013-05-31 15:33:00,
2013-05-31 10:43:00,70.0,66.0,29.85,SE,140,6.0,16.0,87,0.00,,,0.37,,2013-05-31 15:43:00,
2013-05-31 10:53:00,70.0,66.0,29.86,SE,139,5.0,21.0,86,0.00,,,0.37,,2013-05-31 15:53:00,
2013-05-31 11:03:00,70.0,66.0,29.86,SSE,163,3.0,8.0,86,0.00,,,0.37,,2013-05-31 16:03:00,
2013-05-31 11:12:00,70.0,66.0,29.86,SSE,163,3.0,8.0,86,0.00,,,0.37,,2013-05-31 16:12:00,
2013-05-31 11:22:00,70.0,65.0,29.86,SSE,157,7.0,10.0,85,0.00,,,0.37,,2013-05-31 16:22:00,
2013-05-31 11:33:00,70.0,66.0,29.86,SE,146,3.0,6.0,86,0.00,,,0.37,,2013-05-31 16:33:00,
2013-05-31 11:42:00,70.0,66.0,29.86,SE,146,3.0,6.0,86,0.00,,,0.37,,2013-05-31 16:42:00,
2013-05-31 11:52:00,70.0,66.0,29.86,SSE,160,2.0,6.0,87,0.00,,,0.37,,2013-05-31 16:52:00,
2013-05-31 12:02:00,71.0,67.0,29.86,SE,140,4.0,10.0,86,0.00,,,0.37,,2013-05-31 17:02:00,
2013-05-31 12:12:00,71.0,67.0,29.86,SE,140,4.0,10.0,86,0.00,,,0.37,,2013-05-31 17:12:00,
2013-05-31 12:22:00,72.0,67.0,29.85,SE,144,6.0,14.0,83,0.00,,,0.37,,2013-05-31 17:22:00,
2013-05-31 12:32:00,72.0,67.0,29.85,SE,133,5.0,9.0,83,0.00,,,0.37,,2013-05-31 17:32:00,
2013-05-31 12:42:00,72.0,67.0,29.85,SE,133,5.0,9.0,83,0.00,,,0.37,,2013-05-31 17:42:00,
2013-05-31 12:52:00,73.0,67.0,29.85,SSE,149,4.0,16.0,82,0.00,,,0.37,,2013-05-31 17:52:00,
2013-05-31 13:01:00,73.0,67.0,29.85,ESE,103,2.0,8.0,82,0.00,,,0.37,,2013-05-31 18:01:00,
2013-05-31 13:11:00,73.0,67.0,29.85,ESE,103,2.0,8.0,82,0.00,,,0.37,,2013-05-31 18:11:00,
2013-05-31 13:22:00,74.0,68.0,29.85,SE,127,2.0,9.0,82,0.00,,,0.37,,2013-05-31 18:22:00,
2013-05-31 13:31:00,74.0,68.0,29.85,South,190,1.0,9.0,81,0.00,,,0.37,,2013-05-31 18:31:00,
2013-05-31 13:42:00,74.0,68.0,29.85,South,190,1.0,9.0,81,0.00,,,0.37,,2013-05-31 18:42:00,
2013-05-31 13:52:00,75.0,68.0,29.84,SE,128,3.0,9.0,79,0.00,,,0.37,,2013-05-31 18:52:00,
2013-05-31 14:02:00,75.0,68.0,29.83,ESE,120,2.0,9.0,80,0.00,,,0.37,,2013-05-31 19:02:00,
2013-05-31 14:11:00,75.0,68.0,29.83,ESE,120,2.0,9.0,80,0.00,,,0.37,,2013-05-31 19:11:00,
2013-05-31 14:22:00,75.0,68.0,29.82,ESE,102,4.0,14.0,79,0.00,,,0.37,,2013-05-31 19:22:00,
2013-05-31 14:32:00,75.0,68.0,29.81,SSE,167,6.0,10.0,79,0.00,,,0.37,,2013-05-31 19:32:00,
2013-05-31 14:42:00,75.0,68.0,29.81,SSE,167,6.0,10.0,79,0.00,,,0.37,,2013-05-31 19:42:00,
2013-05-31 14:52:00,75.0,67.0,29.80,SE,144,3.0,8.0,77,0.00,,,0.37,,2013-05-31 19:52:00,
2013-05-31 15:01:00,75.0,68.0,29.80,ESE,119,3.0,6.0,78,0.00,,,0.37,,2013-05-31 20:01:00,
2013-05-31 15:11:00,75.0,68.0,29.80,ESE,119,3.0,6.0,78,0.00,,,0.37,,2013-05-31 20:11:00,
2013-05-31 15:22:00,75.0,68.0,29.80,SW,216,1.0,8.0,78,0.00,,,0.37,,2013-05-31 20:22:00,
2013-05-31 15:31:00,75.0,68.0,29.78,ESE,119,3.0,5.0,78,0.00,,,0.37,,2013-05-31 20:31:00,
2013-05-31 15:41:00,75.0,68.0,29.78,ESE,119,3.0,5.0,78,0.00,,,0.37,,2013-05-31 20:41:00,
2013-05-31 15:52:00,75.0,68.0,29.77,SSE,163,3.0,8.0,78,0.00,,,0.33,,2013-05-31 20:52:00,
2013-05-31 16:01:00,75.0,67.0,29.76,SE,128,4.0,6.0,77,0.00,,,0.33,,2013-05-31 21:01:00,
2013-05-31 16:11:00,75.0,67.0,29.76,SE,128,4.0,6.0,77,0.00,,,0.33,,2013-05-31 21:11:00,
2013-05-31 16:22:00,76.0,68.0,29.77,ESE,111,7.0,10.0,77,0.00,,,0.33,,2013-05-31 21:22:00,
2013-05-31 16:32:00,76.0,68.0,29.76,SE,134,6.0,14.0,77,0.00,,,0.33,,2013-05-31 21:32:00,
2013-05-31 16:42:00,76.0,68.0,29.77,SSE,162,3.0,9.0,77,0.00,,,0.33,,2013-05-31 21:42:00,
2013-05-31 16:54:00,76.0,68.0,29.77,SSE,162,3.0,9.0,77,0.00,,,0.33,,2013-05-31 21:54:00,
2013-05-31 17:02:00,76.0,68.0,29.77,SE,134,5.0,15.0,77,0.00,,,0.33,,2013-05-31 22:02:00,
2013-05-31 17:12:00,76.0,68.0,29.77,SE,134,5.0,15.0,77,0.00,,,0.33,,2013-05-31 22:12:00,
2013-05-31 17:22:00,77.0,69.0,29.76,South,169,3.0,15.0,77,0.00,,,0.33,,2013-05-31 22:22:00,
2013-05-31 17:33:00,77.0,69.0,29.76,South,176,6.0,16.0,76,0.00,,,0.33,,2013-05-31 22:33:00,
2013-05-31 17:42:00,76.0,68.0,29.75,SE,138,4.0,9.0,77,0.00,,,0.33,,2013-05-31 22:42:00,
2013-05-31 17:53:00,76.0,68.0,29.75,SE,138,4.0,9.0,77,0.00,,,0.33,,2013-05-31 22:53:00,
2013-05-31 18:02:00,76.0,68.0,29.75,SE,143,4.0,9.0,77,0.00,,,0.33,,2013-05-31 23:02:00,
2013-05-31 18:12:00,76.0,68.0,29.75,SE,143,4.0,9.0,77,0.00,,,0.33,,2013-05-31 23:12:00,
2013-05-31 18:21:00,76.0,68.0,29.74,SE,145,3.0,9.0,77,0.00,,,0.33,,2013-05-31 23:21:00,
2013-05-31 18:32:00,76.0,69.0,29.73,South,178,3.0,9.0,79,0.00,,,0.33,,2013-05-31 23:32:00,
2013-05-31 18:42:00,76.0,69.0,29.73,SSE,168,3.0,8.0,80,0.01,,,0.34,,2013-05-31 23:42:00,
2013-05-31 18:52:00,76.0,69.0,29.73,SSE,168,3.0,8.0,80,0.01,,,0.34,,2013-05-31 23:52:00,
2013-05-31 19:01:00,75.0,69.0,29.73,SSE,148,4.0,10.0,82,0.01,,,0.34,,2013-06-01 00:01:00,
2013-05-31 19:11:00,75.0,69.0,29.73,SSE,148,4.0,10.0,82,0.01,,,0.34,,2013-06-01 00:11:00,
2013-05-31 19:22:00,75.0,70.0,29.73,ESE,112,3.0,18.0,85,0.02,,,0.35,,2013-06-01 00:22:00,
2013-05-31 19:32:00,74.0,70.0,29.72,SSE,157,7.0,14.0,87,0.03,,,0.36,,2013-06-01 00:32:00,
2013-05-31 19:42:00,74.0,70.0,29.73,South,175,5.0,15.0,87,0.02,,,0.36,,2013-06-01 00:42:00,
2013-05-31 19:52:00,74.0,70.0,29.73,South,175,5.0,15.0,87,0.02,,,0.36,,2013-06-01 00:52:00,
2013-05-31 20:01:00,74.0,70.0,29.72,SSE,156,5.0,9.0,87,0.02,,,0.36,,2013-06-01 01:01:00,
2013-05-31 20:11:00,74.0,70.0,29.72,SSE,156,5.0,9.0,87,0.02,,,0.36,,2013-06-01 01:11:00,
2013-05-31 20:21:00,74.0,70.0,29.72,SE,138,3.0,14.0,87,0.01,,,0.36,,2013-06-01 01:21:00,
2013-05-31 20:32:00,74.0,70.0,29.72,South,189,7.0,14.0,86,0.00,,,0.36,,2013-06-01 01:32:00,
2013-05-31 20:42:00,74.0,70.0,29.74,ESE,116,0.0,6.0,86,0.00,,,0.36,,2013-06-01 01:42:00,
2013-05-31 20:52:00,74.0,70.0,29.74,ESE,116,0.0,6.0,86,0.00,,,0.36,,2013-06-01 01:52:00,
2013-05-31 21:01:00,74.0,70.0,29.74,ESE,116,1.0,5.0,86,0.00,,,0.36,,2013-06-01 02:01:00,
2013-05-31 21:11:00,74.0,69.0,29.75,ESE,120,1.0,12.0,85,0.00,,,0.36,,2013-06-01 02:11:00,
2013-05-31 21:21:00,74.0,69.0,29.75,ESE,120,1.0,12.0,85,0.00,,,0.36,,2013-06-01 02:21:00,
2013-05-31 21:32:00,74.0,69.0,29.76,SW,216,3.0,15.0,84,0.00,,,0.36,,2013-06-01 02:32:00,
2013-05-31 21:42:00,74.0,68.0,29.77,SE,130,2.0,8.0,82,0.00,,,0.36,,2013-06-01 02:42:00,
2013-05-31 21:52:00,74.0,68.0,29.77,SE,130,2.0,8.0,82,0.00,,,0.36,,2013-06-01 02:52:00,
2013-05-31 22:01:00,74.0,68.0,29.77,SE,130,2.0,8.0,82,0.00,,,0.36,,2013-06-01 03:01:00,
2013-05-31 22:11:00,74.0,68.0,29.76,ESE,112,1.0,6.0,83,0.00,,,0.36,,2013-06-01 03:11:00,
2013-05-31 22:21:00,74.0,68.0,29.76,ESE,112,1.0,6.0,83,0.00,,,0.36,,2013-06-01 03:21:00,
2013-05-31 22:33:00,74.0,68.0,29.76,ESE,119,5.0,6.0,83,0.00,,,0.36,,2013-06-01 03:33:00,
2013-05-31 22:43:00,74.0,68.0,29.75,East,94,3.0,6.0,83,0.00,,,0.36,,2013-06-01 03:43:00,
2013-05-31 22:53:00,74.0,68.0,29.75,East,94,3.0,6.0,83,0.00,,,0.36,,2013-06-01 03:53:00,
2013-05-31 23:02:00,74.0,68.0,29.75,ESE,122,4.0,8.0,83,0.00,,,0.36,,2013-06-01 04:02:00,
2013-05-31 23:12:00,74.0,68.0,29.73,ESE,117,3.0,10.0,83,0.00,,,0.29,,2013-06-01 04:12:00,
2013-05-31 23:23:00,74.0,68.0,29.73,ESE,117,3.0,10.0,83,0.00,,,0.29,,2013-06-01 04:23:00,
2013-05-31 23:33:00,74.0,69.0,29.73,SE,132,3.0,10.0,84,0.00,,,0.28,,2013-06-01 04:33:00,
2013-05-31 23:42:00,68.0,64.0,29.81,South,182,8.0,23.0,87,0.29,,,0.49,,2013-06-01 04:42:00,
2013-05-31 23:53:00,68.0,64.0,29.81,South,182,8.0,23.0,87,0.29,,,0.49,,2013-06-01 04:53:00,